sat.trackr.live / text

‹ back to catalog

TRANSPORTER-15 OBJECT R

NORAD 66681 · 2025-276R

PAYLOAD ACTIVE UNKNOWN

§ Identity

Operator
Country
TBD
Launch date
2025-11-28
Launch site
AFWTR
Launch vehicle
Mass (kg)
RCS (m²)

External: N2YO · Heavens-Above · Gunter

§ Orbital elements

Epoch: 2026-05-25T03:53:57.883200Z

Period
94.54 min
Inclination
97.4121°
Eccentricity
0.0006864
Mean motion
15.23164777 rev/d
Perigee alt
491.6 km
Apogee alt
501.0 km
Semi-major
6,874.4 km
B*
7.0880e-4
RAAN
219.3590°
Arg perigee
102.5481°
Mean anomaly
257.6524°
Rev number
2,695

§ Raw data

TRANSPORTER-15 OBJECT R1 66681U 25276R   26145.16247550  .00016712  00000+0  70880-3 0  99992 66681  97.4121 219.3590 0006864 102.5481 257.6524 15.23164777 26953

JSON: /api/v1/satellites/66681 · /tle

For live sub-satellite position, see the globe view (requires WebGL).

§ Visibility from observer

Set your observer location to see the next 7 days of passes ≥ 10°. The values pass through the URL so the page stays shareable.

No JS? Fill the form by hand. The geolocation button needs JavaScript.

§ Radio — SatNOGS DB

ModeDescriptionDownlinkUplink
FSK Mode S - FSK400k - Transmitter 2.208 GHz 2.108 GHz
FSK Mode U - FSK50k - Telemetry 400.550 MHz 401.250 MHz

2 transmitters · refreshed weekly from db.satnogs.org